This demonstration page uses our WeatherBlox Daily Observations layout. Learn more.

41.55636, -103.73856

Hourly Observations for September 14, 2019

Temp ( °F °C ) Dew Point ( °F °C ) Humidity (%) Winds ( mph kmh ) Pressure ( in mb ) Visibility ( mi km ) Precip ( " mm )
12:58 am 00:58 Clear 69 20.6 37 2.9 31 31 SSE 12 19 30.07 1018 10 16.0934 0 0
1:58 am 01:58 Clear 65 18.2 38 3.1 37 37 S 13 20 30.07 1018 10 16.0934 0 0
2:58 am 02:58 Clear 61 16.3 38 3.4 42 42 S 7 11 30.08 1019 10 16.0934 0 0
3:58 am 03:58 Clear 58 14.4 40 4.3 51 51 SW 10 17 30.08 1019 10 16.0934 0 0
4:58 am 04:58 Clear 59 15 39 4.1 48 48 SSW 15 24 30.05 1018 10 16.0934 0 0
5:58 am 05:58 Clear 59 15.2 38 3.5 46 46 SSW 9 15 30.05 1018 10 16.0934 0 0
6:58 am 06:58 Clear 58 14.2 38 3.4 48 48 SSW 7 11 30.05 1018 10 16.0934 0 0
7:58 am 07:58 Clear 55 13 37 2.9 51 51 SW 5 7 30.05 1018 10 16.0934 0 0
8:58 am 08:58 Clear 57 13.8 36 2.4 46 46 WNW 6 9 30.04 1017 10 16.0934 0 0
9:58 am 09:58 Clear 56 13.2 36 2.3 48 48 W 5 7 30.04 1017 10 16.0934 0 0
10:58 am 10:58 Clear 51 10.6 37 2.7 58 58 W 6 9 30.05 1018 10 16.0934 0 0
11:58 am 11:58 Clear 51 10.5 35 1.5 54 54 WSW 8 13 30.06 1018 10 16.0934 0 0
12:58 pm 12:58 Sunny 49 9.5 35 1.7 59 59 WNW 3 6 30.1 1019 10 16.0934 0 0
1:58 pm 13:58 Sunny 56 13.5 37 2.8 49 49 WSW 5 7 30.09 1019 10 16.0934 0 0
2:58 pm 14:58 Sunny 71 21.9 33 0.5 24 24 W 10 17 30.07 1018 10 16.0934 0 0
3:58 pm 15:58 Sunny 74 23.3 28 -2.4 18 18 WNW 22 35 30.07 1018 10 16.0934 0 0
4:58 pm 16:58 Sunny 76 24.3 29 -1.5 18 18 WNW 23 37 30.05 1018 10 16.0934 0 0
6:58 pm 18:58 Sunny 79 26.2 30 -1.2 16 16 NNW 15 24 30.04 1017 10 16.0934 0 0
7:58 pm 19:58 Sunny 81 27.2 29 -1.8 15 15 NW 18 30 30.02 1017 10 16.0934 0 0
8:58 pm 20:58 Sunny 82 27.6 32 0.2 17 17 NW 12 19 29.98 1015 10 16.0934 0 0
9:58 pm 21:58 Sunny 82 27.9 31 -0.5 16 16 NW 14 22 29.98 1015 10 16.0934 0 0
10:58 pm 22:58 Sunny 82 27.9 34 1.1 18 18 NNW 6 9 29.99 1016 10 16.0934 0 0

Powered by AerisWeather